Regional Weather Roundup
Issued by NWS

Home | Current Version | Previous Version | Graphics & Text | Print | Product List | Glossary On
Versions: 1 2 3 4 5 6 7 8 9 10 11 12 13 14 15 16 17 18 19 20 21 22 23 24 25 26 27 28 29 30 31 32 33 34 35 36 37 38 39 40 41 42 43 44 45 46 47 48 49 50
000
ASUS43 KLMK 040502
RWRKY
KENTUCKY REGIONAL WEATHER ROUNDUP
NATIONAL WEATHER SERVICE LOUISVILLE KY
100 AM EDT FRI SEP 04 2015

NOTE "FAIR" INDICATES FEW OR NO CLOUDS BELOW 12,000 FEET
WITH NO SIGNIFICANT WEATHER AND/OR OBSTRUCTIONS TO VISIBILITY.

KYZ001>023-026-027-061>063-070>075-040600-
WESTERN AND SOUTH CENTRAL KENTUCKY

CITY           SKY/WX    TMP DP  RH WIND       PRES   REMARKS
PADUCAH        CLEAR     71  68  90 CALM      29.96S
HENDERSON      CLEAR     68  64  88 CALM      29.96S
OWENSBORO      CLEAR     74  71  90 CALM      29.97S
HOPKINSVILLE   CLEAR     73  68  84 N1        29.97S
BOWLING GREEN  CLEAR     72  70  93 CALM      29.98S
GLASGOW        CLEAR     69  69 100 CALM      29.99S
$$

KYZ024-025-028>034-038-045-046-053-040600-
NORTH CENTRAL KENTUCKY

CITY           SKY/WX    TMP DP  RH WIND       PRES   REMARKS
LOUISVILLE/SDF CLEAR     79  67  66 CALM      29.97R
LOUISVILLE/LOU CLEAR     76  68  76 CALM      29.98S
FORT KNOX      CLEAR     69  67  91 CALM      29.97S
$$

KYZ035>037-039>044-047>052-055>060-089>105-040600-
NORTHEAST KENTUCKY

CITY           SKY/WX    TMP DP  RH WIND       PRES   REMARKS
LEXINGTON      CLEAR     73  66  78 CALM      30.00S
COVINGTON      CLEAR     71  67  87 CALM      29.98S
FRANKFORT      CLEAR     70  66  87 CALM      29.98S
$$

KYZ054-064>069-076>088-106>120-040600-
SOUTHEAST KENTUCKY

CITY           SKY/WX    TMP DP  RH WIND       PRES   REMARKS
JACKSON        CLEAR     74  65  73 CALM      30.02S
LONDON         CLEAR     71  65  81 CALM      30.02S HAZE
SOMERSET       NOT AVBL
MIDDLESBORO    CLEAR     67  66  97 CALM      30.03S
MONTICELLO     CLEAR     67  67 100 CALM      30.03S FOG
$$




USA.gov is the U.S. government's official web portal to all federal, state and local government web resources and services.